Flag for Denmark

Past Weather in 55°40'34"N, 12°34'03"E, Denmark — Yesterday and Last 2 Weeks

Currently: 41 °F. Broken clouds. (Weather station: Koebenhavn-Kastrup Airport, Denmark). See more current weather

Past Weather in 55°40'34"N, 12°34'03"E — Graph

°F

55°40'34"N, 12°34'03"E Temperature Yesterday

Maximum temperature yesterday: 45 °F (at 2:20 pm)
Minimum temperature yesterday: 37 °F (at 6:50 am)
Average temperature yesterday: 41 °F

High & Low Weather Summary for the Past Weeks

 TemperatureHumidityPressure
High50 °F (Feb 16, 6:20 pm)100% (Feb 11, 10:50 pm)30.51 "Hg (Feb 11, 10:50 pm)
Low30 °F (Feb 17, 10:20 pm)53% (Feb 17, 3:50 pm)28.82 "Hg (Feb 23, 1:50 am)
Average41 °F90%29.76 "Hg
* Reported Feb 10 4:20 pm — Feb 25 4:20 pm, 55°40'34"N, 12°34'03"E. Weather by CustomWeather, © 2024

Note: Actual official high and low records may vary slightly from our data, if they occured in-between our weather recording intervals... More about our weather records

55°40'34"N, 12°34'03"E Weather History for the Previous 24 Hours

Scroll right to see more
 ConditionsComfort  
Time TempWeatherWind HumidityBarometerVisibility
4:20 pm
Sun, Feb 25
43 °FPartly sunny.9 mph76%29.65 "HgN/A
3:20 pm43 °FBroken clouds.7 mph76%29.65 "HgN/A
2:50 pm43 °FPassing clouds.9 mph76%29.65 "HgN/A
2:20 pm43 °FPartly sunny.9 mph76%29.65 "HgN/A
1:50 pm43 °FPassing clouds.12 mph76%29.65 "HgN/A
1:20 pm43 °FPassing clouds.15 mph71%29.65 "HgN/A
12:50 pm43 °FPassing clouds.9 mph76%29.65 "HgN/A
12:20 pm43 °FPassing clouds.12 mph71%29.68 "HgN/A
11:50 am41 °FQuite cool.13 mph81%29.68 "HgN/A
11:20 am43 °FQuite cool.13 mph76%29.68 "HgN/A
10:50 am41 °FPassing clouds.13 mph81%29.68 "HgN/A
10:20 am39 °FPassing clouds.10 mph87%29.68 "HgN/A
9:50 am39 °FChilly.14 mph87%29.68 "HgN/A
9:20 am39 °FScattered clouds.10 mph87%29.68 "HgN/A
8:50 am39 °FPassing clouds.13 mph87%29.68 "HgN/A
7:50 am37 °FChilly.13 mph93%29.68 "HgN/A
7:20 am39 °FPassing clouds.13 mph87%29.68 "HgN/A
6:50 am39 °FPassing clouds.14 mph87%29.68 "HgN/A
6:20 am37 °FPassing clouds.12 mph93%29.68 "HgN/A
5:50 am37 °FPassing clouds.12 mph93%29.65 "HgN/A
5:20 am39 °FPassing clouds.13 mph87%29.65 "HgN/A
4:50 am39 °FPassing clouds.13 mph87%29.65 "HgN/A
4:20 am39 °FPassing clouds.14 mph93%29.65 "HgN/A
3:50 am39 °FOvercast.13 mph93%29.65 "HgN/A
3:20 am39 °FPassing clouds.12 mph93%29.65 "HgN/A
2:50 am39 °FPassing clouds.14 mph93%29.65 "HgN/A
2:20 am39 °FPassing clouds.12 mph93%29.65 "HgN/A
1:50 am37 °FPassing clouds.10 mph93%29.65 "HgN/A
12:20 am36 °FChilly.8 mph93%29.62 "HgN/A
11:50 pm
Sat, Feb 24
39 °FPassing clouds.9 mph87%29.62 "HgN/A
11:20 pm41 °FPassing clouds.12 mph93%29.62 "HgN/A
10:50 pm41 °FMostly cloudy.13 mph87%29.62 "HgN/A
10:20 pm41 °FPassing clouds.8 mph87%29.62 "HgN/A
9:50 pm41 °FPassing clouds.13 mph87%29.62 "HgN/A
9:20 pm41 °FPassing clouds.12 mph87%29.59 "HgN/A
8:50 pm43 °FOvercast.10 mph81%29.59 "HgN/A
8:20 pm41 °FMostly cloudy.13 mph87%29.59 "HgN/A
7:50 pm43 °FMostly cloudy.8 mph81%29.59 "HgN/A
7:20 pm41 °FOvercast.9 mph87%29.59 "HgN/A
6:50 pm41 °FOvercast.8 mph87%29.59 "HgN/A
6:20 pm41 °FPartly cloudy.10 mph87%29.59 "HgN/A
5:50 pm41 °FPassing clouds.10 mph81%29.59 "HgN/A
5:20 pm41 °FPartly sunny.10 mph81%29.56 "HgN/A
Weather by CustomWeather, © 2024

See weather overview